AVA665 SKCL-MROC

Flight info

Callsign AVA665
Flight time N/A
Altitude 24000
Route SIGIR6C SIGIR A321 BUSMO/N0383F180 A321 IRATA/N0462F300 DCT RODAX DCT DEXAN/N0383F180 Q13 PAMON DCT STG V11 DAV DCT COTOS CUARE4T
Aircraft A20N/M-SDE2E3FGHIRWXY/LB1

Departure

Time 2026-04-26 18:01
Airport Alfonso Bonilla Aragon International Airport (SKCL)

Arrival

Time N/A
Airport Juan Santamaría International Airport (MROC)
Time Latitude Longitude Altitude Speed Heading
2026-04-26 17:46 3.53646 -76.38609 3162 ft 0 kts 279°
2026-04-26 17:52 3.53646 -76.38606 3162 ft 3 kts 279°
2026-04-26 17:52 3.53640 -76.38575 3162 ft 4 kts 279°
2026-04-26 17:53 3.53636 -76.38546 3164 ft 4 kts 274°
2026-04-26 17:53 3.53644 -76.38520 3164 ft 4 kts 210°
2026-04-26 17:53 3.53672 -76.38514 3162 ft 4 kts 181°
2026-04-26 17:54 3.53725 -76.38538 3166 ft 0 kts 143°
2026-04-26 17:57 3.53719 -76.38533 3163 ft 3 kts 143°
2026-04-26 17:57 3.53690 -76.38511 3164 ft 7 kts 143°
2026-04-26 17:57 3.53640 -76.38473 3162 ft 10 kts 143°
2026-04-26 17:58 3.53353 -76.38499 3163 ft 18 kts 189°
2026-04-26 17:59 3.53082 -76.38548 3163 ft 18 kts 189°
2026-04-26 17:59 3.53045 -76.38554 3162 ft 2 kts 190°
2026-04-26 17:59 3.53022 -76.38553 3162 ft 5 kts 165°
2026-04-26 17:59 3.52995 -76.38521 3161 ft 8 kts 111°
2026-04-26 18:00 3.52986 -76.38455 3162 ft 12 kts 94°
2026-04-26 18:00 3.53031 -76.38390 3160 ft 13 kts 17°
2026-04-26 18:00 3.53140 -76.38370 3159 ft 25 kts 10°
2026-04-26 18:00 3.53456 -76.38317 3163 ft 80 kts
2026-04-26 18:01 3.54262 -76.38180 3167 ft 151 kts 10°
2026-04-26 18:01 3.55400 -76.37987 3659 ft 170 kts
2026-04-26 18:01 3.56608 -76.37789 4404 ft 185 kts 10°
2026-04-26 18:01 3.57950 -76.37553 4976 ft 207 kts
2026-04-26 18:02 3.59440 -76.37288 5584 ft 228 kts
2026-04-26 18:02 3.59978 -76.37192 5805 ft 234 kts
2026-04-26 18:02 3.62755 -76.36705 7299 ft 247 kts
2026-04-26 18:02 3.64461 -76.36408 8282 ft 251 kts
2026-04-26 18:03 3.66202 -76.36106 9198 ft 257 kts
2026-04-26 18:03 3.68008 -76.36158 9880 ft 266 kts 343°
2026-04-26 18:03 3.69664 -76.37056 10348 ft 278 kts 316°
2026-04-26 18:03 3.70785 -76.38665 10817 ft 290 kts 290°
2026-04-26 18:04 3.71246 -76.40670 11302 ft 303 kts 276°
2026-04-26 18:04 3.71440 -76.42813 11778 ft 315 kts 274°
2026-04-26 18:04 3.71644 -76.45013 12261 ft 327 kts 276°
2026-04-26 18:05 3.72332 -76.49671 13256 ft 348 kts 280°
2026-04-26 18:05 3.72814 -76.52087 13756 ft 358 kts 281°
2026-04-26 18:05 3.73331 -76.54560 14206 ft 367 kts 282°
2026-04-26 18:05 3.73867 -76.57085 14654 ft 374 kts 284°
2026-04-26 18:06 3.74863 -76.59514 15116 ft 381 kts 301°
2026-04-26 18:06 3.76557 -76.61542 15552 ft 378 kts 319°
2026-04-26 18:06 3.78713 -76.62987 16033 ft 369 kts 329°
2026-04-26 18:06 3.80907 -76.64196 16506 ft 361 kts 331°
2026-04-26 18:07 3.83096 -76.65378 16974 ft 353 kts 331°
2026-04-26 18:07 3.85221 -76.66547 17478 ft 345 kts 330°
2026-04-26 18:07 3.87292 -76.67711 17972 ft 337 kts 330°
2026-04-26 18:07 3.87980 -76.68102 18138 ft 334 kts 330°
2026-04-26 18:08 3.91263 -76.69984 18879 ft 320 kts 329°
2026-04-26 18:08 3.93172 -76.71085 19313 ft 311 kts 329°
2026-04-26 18:08 3.95020 -76.72151 19769 ft 302 kts 330°
2026-04-26 18:08 3.96214 -76.72840 20069 ft 295 kts 330°
2026-04-26 18:09 3.98527 -76.74174 20606 ft 285 kts 330°
2026-04-26 18:09 4.00243 -76.75163 20786 ft 285 kts 330°
2026-04-26 18:09 4.01969 -76.76158 20937 ft 287 kts 330°
2026-04-26 18:09 4.03700 -76.77156 21093 ft 287 kts 330°
2026-04-26 18:10 4.04873 -76.77832 21201 ft 288 kts 330°
2026-04-26 18:10 4.07179 -76.79162 21405 ft 289 kts 330°
2026-04-26 18:10 4.08337 -76.79830 21481 ft 290 kts 330°
2026-04-26 18:10 4.10087 -76.80839 21618 ft 291 kts 330°
2026-04-26 18:11 4.11848 -76.81855 21783 ft 292 kts 330°
2026-04-26 18:11 4.13611 -76.82871 21937 ft 293 kts 330°
2026-04-26 18:11 4.15379 -76.83890 22092 ft 293 kts 330°
2026-04-26 18:11 4.17148 -76.84911 22212 ft 294 kts 330°
2026-04-26 18:12 4.18926 -76.85936 22360 ft 295 kts 330°
2026-04-26 18:12 4.20711 -76.86966 22503 ft 296 kts 330°
2026-04-26 18:12 4.22504 -76.87999 22628 ft 297 kts 330°
2026-04-26 18:12 4.24302 -76.89037 22762 ft 299 kts 330°
2026-04-26 18:13 4.26099 -76.90077 22936 ft 298 kts 330°
2026-04-26 18:13 4.27901 -76.91123 23018 ft 301 kts 330°
2026-04-26 18:13 4.29710 -76.92175 23159 ft 301 kts 330°
2026-04-26 18:13 4.30916 -76.92876 23227 ft 302 kts 330°
2026-04-26 18:14 4.33350 -76.94289 23418 ft 302 kts 330°
2026-04-26 18:14 4.35174 -76.95348 23530 ft 303 kts 330°
2026-04-26 18:14 4.36974 -76.96392 23651 ft 303 kts 330°
2026-04-26 18:14 4.38811 -76.97459 23723 ft 305 kts 330°
2026-04-26 18:15 4.40655 -76.98529 23801 ft 307 kts 330°
2026-04-26 18:15 4.42502 -76.99601 23934 ft 306 kts 330°
2026-04-26 18:15 4.44353 -77.00676 24014 ft 308 kts 330°
2026-04-26 18:15 4.46202 -77.01749 24166 ft 306 kts 330°
2026-04-26 18:16 4.48055 -77.02826 24227 ft 309 kts 330°
2026-04-26 18:16 4.51779 -77.04988 24441 ft 310 kts 330°
2026-04-26 18:16 4.53646 -77.06072 24532 ft 310 kts 330°
2026-04-26 18:17 4.55520 -77.07160 24630 ft 310 kts 330°
2026-04-26 18:17 4.57362 -77.08230 24753 ft 311 kts 330°
2026-04-26 18:17 4.59242 -77.09322 24777 ft 313 kts 330°
2026-04-26 18:17 4.61134 -77.10422 24865 ft 314 kts 330°
2026-04-26 18:18 4.63019 -77.11516 25008 ft 313 kts 330°
2026-04-26 18:18 4.64909 -77.12615 25060 ft 315 kts 330°
2026-04-26 18:18 4.66805 -77.13716 25171 ft 314 kts 330°
2026-04-26 18:18 4.68696 -77.14815 25238 ft 316 kts 330°
2026-04-26 18:19 4.70609 -77.15926 25278 ft 319 kts 330°
2026-04-26 18:19 4.72536 -77.17046 25305 ft 320 kts 330°
2026-04-26 18:19 4.74470 -77.18170 25317 ft 326 kts 330°
2026-04-26 18:19 4.76471 -77.19332 25444 ft 336 kts 330°
2026-04-26 18:20 4.78510 -77.20517 25678 ft 342 kts 330°
2026-04-26 18:20 4.80588 -77.21725 25914 ft 348 kts 330°
2026-04-26 18:20 4.82673 -77.22937 26153 ft 354 kts 330°
2026-04-26 18:20 4.84125 -77.23781 26318 ft 358 kts 330°
2026-04-26 18:21 4.87015 -77.25460 26643 ft 366 kts 330°
2026-04-26 18:21 4.89234 -77.26751 26884 ft 371 kts 330°
2026-04-26 18:21 4.91485 -77.28060 27133 ft 377 kts 330°
2026-04-26 18:21 4.93779 -77.29394 27384 ft 382 kts 330°
2026-04-26 18:22 4.96093 -77.30740 27632 ft 387 kts 330°
2026-04-26 18:22 4.98438 -77.32104 27879 ft 392 kts 330°
2026-04-26 18:22 5.00788 -77.33471 28127 ft 397 kts 330°
2026-04-26 18:22 5.03189 -77.34868 28385 ft 401 kts 330°
2026-04-26 18:23 5.05616 -77.36280 28646 ft 405 kts 330°
2026-04-26 18:23 5.08071 -77.37708 28905 ft 409 kts 330°
2026-04-26 18:23 5.10549 -77.39150 29171 ft 413 kts 330°
2026-04-26 18:23 5.13044 -77.40602 29437 ft 417 kts 330°
2026-04-26 18:24 5.15566 -77.42070 29706 ft 421 kts 330°
2026-04-26 18:24 5.18116 -77.43554 29879 ft 427 kts 330°
2026-04-26 18:24 5.23382 -77.46620 29894 ft 447 kts 330°
2026-04-26 18:25 5.28890 -77.49827 29891 ft 466 kts 330°
2026-04-26 18:25 5.34571 -77.53135 29892 ft 483 kts 330°
2026-04-26 18:26 5.40459 -77.56565 29537 ft 491 kts 330°
2026-04-26 18:26 5.43409 -77.58283 29160 ft 489 kts 330°
2026-04-26 18:26 5.46352 -77.59998 29055 ft 489 kts 330°
2026-04-26 18:27 5.49312 -77.61723 29163 ft 493 kts 330°
2026-04-26 18:27 5.52272 -77.63449 29289 ft 491 kts 330°
2026-04-26 18:27 5.55235 -77.65176 29424 ft 491 kts 330°
2026-04-26 18:27 5.58186 -77.66896 29555 ft 491 kts 330°
2026-04-26 18:28 5.61140 -77.68618 29686 ft 491 kts 330°
2026-04-26 18:28 5.64094 -77.70341 29822 ft 491 kts 330°
2026-04-26 18:28 5.70005 -77.73788 29890 ft 490 kts 330°
2026-04-26 18:29 5.75909 -77.77232 29880 ft 490 kts 330°
2026-04-26 18:29 5.81780 -77.80658 29882 ft 490 kts 330°
2026-04-26 18:30 5.87691 -77.84108 29893 ft 491 kts 330°
2026-04-26 18:30 5.93598 -77.87557 29891 ft 491 kts 330°
2026-04-26 18:31 5.99474 -77.90987 29894 ft 490 kts 330°
2026-04-26 18:31 6.05372 -77.94433 29893 ft 490 kts 330°
2026-04-26 18:32 6.11270 -77.97878 29906 ft 490 kts 330°
2026-04-26 18:32 6.17158 -78.01319 29896 ft 489 kts 330°
2026-04-26 18:33 6.23013 -78.04742 29897 ft 488 kts 330°
2026-04-26 18:33 6.28897 -78.08182 29891 ft 488 kts 330°
2026-04-26 18:34 6.34771 -78.11617 29889 ft 487 kts 329°
2026-04-26 18:34 6.40595 -78.15024 29882 ft 487 kts 329°
2026-04-26 18:35 6.46449 -78.18450 29886 ft 487 kts 329°
2026-04-26 18:35 6.52317 -78.21884 29881 ft 486 kts 329°
2026-04-26 18:36 6.58128 -78.25287 29882 ft 486 kts 329°
2026-04-26 18:36 6.63978 -78.28712 29880 ft 486 kts 329°
2026-04-26 18:37 6.69835 -78.32143 29886 ft 487 kts 329°
2026-04-26 18:37 6.75646 -78.35587 29887 ft 486 kts 328°
2026-04-26 18:38 6.81437 -78.39108 29896 ft 486 kts 328°
2026-04-26 18:38 6.87245 -78.42632 29885 ft 487 kts 328°
2026-04-26 18:39 6.93054 -78.46148 29893 ft 487 kts 328°
2026-04-26 18:39 6.97239 -78.48680 29911 ft 491 kts 328°
2026-04-26 18:40 7.02528 -78.51882 29892 ft 503 kts 328°
2026-04-26 18:41 7.08574 -78.55542 29896 ft 509 kts 328°
2026-04-26 18:41 7.14677 -78.59238 29894 ft 512 kts 328°
2026-04-26 18:42 7.20798 -78.62946 29891 ft 514 kts 328°
2026-04-26 18:42 7.26901 -78.66644 29893 ft 515 kts 328°
2026-04-26 18:43 7.33046 -78.70369 29891 ft 515 kts 328°
2026-04-26 18:43 7.39202 -78.74103 29896 ft 515 kts 328°
2026-04-26 18:44 7.45229 -78.78005 29897 ft 515 kts 319°
2026-04-26 18:44 7.47760 -78.80545 29893 ft 513 kts 308°
2026-04-26 18:44 7.49763 -78.83508 29888 ft 506 kts 297°
2026-04-26 18:45 7.51107 -78.86646 29895 ft 485 kts 286°
2026-04-26 18:45 7.51991 -78.89871 29892 ft 475 kts 284°
2026-04-26 18:45 7.53691 -78.96380 29890 ft 482 kts 284°
2026-04-26 18:46 7.55458 -79.02880 29890 ft 481 kts 284°
2026-04-26 18:46 7.57260 -79.09384 29890 ft 481 kts 284°
2026-04-26 18:47 7.59063 -79.15885 29892 ft 481 kts 284°
2026-04-26 18:47 7.60865 -79.22388 29894 ft 481 kts 284°
2026-04-26 18:48 7.62657 -79.28861 29887 ft 481 kts 284°
2026-04-26 18:48 7.64457 -79.35368 29889 ft 481 kts 284°
2026-04-26 18:49 7.66256 -79.41873 29893 ft 481 kts 284°
2026-04-26 18:49 7.68040 -79.48328 29900 ft 481 kts 284°
2026-04-26 18:50 7.69834 -79.54828 29899 ft 481 kts 284°
2026-04-26 18:50 7.71630 -79.61335 29893 ft 480 kts 284°
2026-04-26 18:51 7.73421 -79.67831 29891 ft 480 kts 284°
2026-04-26 18:51 7.74014 -79.69980 29894 ft 480 kts 284°